COSMOS 1275 DEB, 42233

Orbit data source: Space-Track

COSMOS 1275 DEB, 42233 is space debris in LEO originally from a launch on Thu, 04 Jun 1981 UTC launched from the Plesetsk Missile And Space Complex (PKMTR). Debris objects in space refer to the collection of defunct objects orbiting the Earth. Examples of debris include non-operational satellites, rocket bodies, and fragments generated from explosions, collisions, or faulty payload assembly.

Loading next visibility...
Identifier
42233, 1981-053UZ
Orbit
LEO
Country
Flag of CISCIS
Related business
Manufacturer
Unknown
Mission
Spacecraft
Bus & Motor
Unknown
Mass
Unknown
Launch date (UTC)
1981-06-04 (44 years ago)
Launch vehicle
Unknown
Launch site
Plesetsk Missile And Space Complex (PKMTR)
Object type
Payload
Rocket body
Debris
Shape & HBR
Unknown shape, 0.1 m
Radar Cross Section
Small (<0.1 m²)

Expand to show TLE details & history
Last TLE update: 5 days ago

TLE from 5 days ago
0 COSMOS 1275 DEB
1 42233U 81053UZ  25304.57146445  .00000539  00000-0  58998-3 0  9990
2 42233  83.0403 160.5355 0132710  55.1304 306.2240 13.66924440548947
Epoch: 2025-10-31T13:42Z
TLE epoch observation values (Epoch: 2025-10-31T13:42:54.528Z)
Latitude
-0.00008°
Longitude
-85.30569°
Altitude
956.424 km
Speed
7.402 km/s
True Right ascension
10h 42m 08s
True Declination
0° 00' 00"
Sunlit
Object was in daylight at epoch
Visualization orbit readout
Latitude
Unknown
Longitude
Unknown
Altitude
Unknown
Speed
Unknown
Apparent Right ascension
Unknown
Apparent Declination
Unknown
Sunlit
N/A
Visualization observer readout
Local Sidereal Time
13:38:46
Azimuth
Unknown
Elevation
Unknown
Doppler factor
Unknown
Orbital elements
Apogee altitude
1,105.808 km
Perigee altitude
909.77 km
Semi-major axis
7,385.926 km
Eccentricity
0.01327
Inclination
83.0403°
RAAN
160.5355°
Arg. of periapsis
55.1304°
True anomaly
304.98515°
Mean anomaly
306.224°
Eccentric anomaly
305.60579°
Mean motion
3.41929 °/min
Orbital period
105.29 mins
BSTAR
0.00058998
Loading maneuver chart data...
Computing Atmospheric mass density...
Loading historical data...
Loading historical data...
Loading historical data...
Loading historical data...
Loading historical data...
Loading historical data...
Loading historical data...

Documentation

Showing up to 5 results
|